sat.trackr.live / text

‹ back to catalog

STARLINK-30606

NORAD 58109 · 2023-161N

PAYLOAD ACTIVE UNKNOWN

§ Identity

Operator
Country
US
Launch date
2023-10-21
Launch site
AFWTR
Launch vehicle
Mass (kg)
RCS (m²)

Purposes: comms

External: N2YO · Heavens-Above · Gunter

§ Orbital elements

Epoch: 2026-05-25T01:20:42.848736Z

Period
94.11 min
Inclination
53.1588°
Eccentricity
0.0001101
Mean motion
15.30189754 rev/d
Perigee alt
474.5 km
Apogee alt
476.0 km
Semi-major
6,853.4 km
B*
2.7340e-5
RAAN
170.8152°
Arg perigee
96.3721°
Mean anomaly
263.7405°
Rev number
14,611

§ Raw data

STARLINK-306061 58109U 23161N   26145.05605149  .00000451  00000+0  27340-4 0  99932 58109  53.1588 170.8152 0001101  96.3721 263.7405 15.30189754146113

JSON: /api/v1/satellites/58109 · /tle

For live sub-satellite position, see the globe view (requires WebGL).

§ Visibility from observer

Set your observer location to see the next 7 days of passes ≥ 10°. The values pass through the URL so the page stays shareable.

No JS? Fill the form by hand. The geolocation button needs JavaScript.